Location: Unspecified
(34.4950°S, 58.5160°W)
Time: 00:07:49
(UTC+00:00)

Cosmos 1408 Rocket - Pass Details

Date: 19 April 2026
Orbit: 593 x 624 km, 82.6° (Epoch: 16 May)

Event Time Altitude Azimuth Distance (km) Brightness Sun altitude
Rises 09:18:07 0° 351° (N) 2,823 6.9 -13.5°
Reaches altitude 10° 09:20:18 10° 349° (N) 1,932 6.0 -13.1°
Maximum altitude 09:24:34 74° 264° (W) 632 3.4 -12.2°
Drops below altitude 10° 09:28:56 10° 177° (S) 1,975 6.1 -11.3°
Sets 09:31:12 0° 175° (S) 2,892 7.0 -10.8°
